Starlink 32278

operational
NORAD ID: 60356 Int'l Des: 2024-138 Owner: SPXS Country: US Constellation: starlink
LEOCIRCULAR

关于 Starlink 32278

正在加载描述...

实时位置

正在加载3D地球...

即将过境

高度历史

Altitude vs Time

uPlot chart will show altitude changes over time

两行轨道根数

1 60356U 24138B 25307.63768659 .00000191 00000-0 18587-4 0 9999
2 60356 53.1603 175.4391 0001509 92.7716 267.3457 15.30192455 71329
Epoch: Nov 3, 2025 • Age: 14 hours

当前状态

高度 494.8 km
速度 7.62 km/s
星下点 -53.29°S, 38.5°W
发射日期 Aug 4, 2024
运行时间 1.2 years
类型 internet

技术详情

分类 Payload
质量 730.00 kg
干质量 700.00 kg
总质量 730.00 kg
长度 0.30 m
直径 4.10 m
跨度 29.00 m
形状 Box + pan
制造商 SPXS
平台类型 Starlink V2M
阶段状态 In Orbit
所有者/国家 SPXS/US

大型星座

Loading constellations...